x

Yucatan Basin - 120 Nm Ese Of Cozumel, Mx (42056) Weather Station

6:10 - Tue 31st May 2016 All times are CDT. -5 hours from GMT.

  • Wind
    13mph, 16mph gusts
  • Sea Temp 85°f
  • Ar Temp 84°f
  • Sea Pressure 1010.4mb
  •  Yucatan Basin - 120 Nm Ese Of Cozumel, Mx
  •  Yucatan Basin - 120 Nm Ese Of Cozumel, Mx

More Historic Weather Station data

Upgrade to MSW Pro to gain access to the past 30 days of data for over 8000 Wavebouys and Weather Stations around the globe.

Join Pro

Comparision Forecast

View Surf forecast
   
Ter 05/31 6:10  -   -   -  13 16 mph 1010.4mb 85f 84f
6:00  -   -   -  11 16 mph 1010.4mb 85f 84f
5:50 2ft 6s 4s 11 13 mph 1010.5mb 85f 84f
5:40  -   -   -  11 13 mph 1010.5mb 85f 84f
5:30  -   -   -  9 13 mph 1010.5mb 85f 83f
5:20  -   -   -  11
mph
1010.5mb 85f 83f
5:10  -   -   -  9 11 mph 1010.5mb 85f 83f
5:00  -   -   -  13 16 mph 1010.5mb 85f 83f
4:50 2ft 7s 4s 16 18 mph 1010.5mb 85f 83f
4:40  -   -   -  13 18 mph 1010.5mb 85f 84f
4:30  -   -   -  11 13 mph 1010.5mb 85f 84f
4:20  -   -   -  11 13 mph 1010.5mb 85f 84f
4:10  -   -   -  11 13 mph 1010.5mb 85f 84f
4:00  -   -   -  11 13 mph 1010.5mb 85f 84f
3:50 2ft 6s 4s 11 13 mph 1010.5mb 85f 84f
3:40 2ft  -  4s 11 16 mph 1010.6mb 85f 84f
3:30  -   -   -  11 13 mph 1010.6mb 85f 84f
3:20  -   -   -  11 13 mph 1010.8mb 85f 84f
3:10  -   -   -  11 13 mph 1010.9mb 85f 84f
3:00  -   -   -  11 13 mph 1011mb 85f 84f
2:50 2ft 6s 4s 9 13 mph 1011mb 85f 84f
2:40  -   -   -  11 13 mph 1011.3mb 85f 84f
2:30  -   -   -  11 13 mph 1011.5mb 85f 84f
2:20  -   -   -  11 13 mph 1011.5mb 85f 84f
2:10  -   -   -  11 13 mph 1011.5mb 85f 84f
2:00  -   -   -  11 13 mph 1011.5mb 85f 84f
1:50 2ft 5s 4s 11 13 mph 1011.6mb - 84f
1:40  -   -   -  13 16 mph 1011.8mb 85f 84f
1:30  -   -   -  13 16 mph 1011.9mb 85f 84f
1:20  -   -   -  13 16 mph 1011.8mb 85f 84f
1:10  -   -   -  11 16 mph 1011.8mb 85f 84f
1:00  -   -   -  13 16 mph 1011.9mb 85f 84f
12:50 2ft 7s 4s 13 16 mph 1011.9mb 85f 84f
12:40 2ft  -  4s 11 13 mph 1012mb - 84f
12:30  -   -   -  11 13 mph 1012mb 84f 84f
12:20  -   -   -  11 16 mph 1012mb 84f 84f
12:10  -   -   -  11 16 mph 1012.1mb 85f 84f
12:00  -   -   -  11 13 mph 1012.3mb 84f 84f
11:50 2ft 7s 4s 11 13 mph 1012.3mb 84f 83f
11:40  -   -   -  11 13 mph 1012.4mb 84f 83f
11:30  -   -   -  11 13 mph 1012.4mb 84f 83f
11:20  -   -   -  11 13 mph 1012.4mb 84f 83f
11:10  -   -   -  11 13 mph 1012.4mb 84f 83f
11:00  -   -   -  11 16 mph 1012.4mb 84f 83f
10:50 2.5ft 6s 4s 11 13 mph 1012.4mb 84f 83f
10:40  -   -   -  11 13 mph 1012.4mb 84f 83f
10:30  -   -   -  9 11 mph 1012.6mb 84f 83f
10:20  -   -   -  11 13 mph 1012.8mb 84f 83f
10:10  -   -   -  11 13 mph 1012.5mb 84f 83f
10:00  -   -   -  11 13 mph 1012.5mb 84f 83f
9:50 2ft 6s 4s 11 13 mph 1012.4mb 84f 83f
9:40  -   -   -  11 13 mph 1012.5mb 84f 83f
9:30  -   -   -  11 13 mph 1012.4mb 84f 83f
9:20  -   -   -  11 13 mph 1012.4mb 84f 83f
9:10  -   -   -  11 13 mph 1012.4mb 84f 83f
9:00  -   -   -  11 13 mph 1012.4mb 84f 83f
8:50 2ft 7s 4s 11 13 mph 1012.4mb 84f 83f
8:40  -   -   -  11 13 mph 1012.1mb 84f 83f
8:30  -   -   -  9 13 mph 1012.3mb 84f 83f
8:20  -   -   -  9 13 mph 1012mb - 83f
8:10  -   -   -  11 13 mph 1012mb 84f 83f
8:00  -   -   -  11 13 mph 1012.1mb 84f 83f
7:50 2ft 7s 4s 9 13 mph 1012mb 84f 83f
7:40  -   -   -  9
mph
1012.1mb 84f 83f
7:30  -   -   -  9 11 mph 1012mb 84f 83f
7:20  -   -   -  9 11 mph 1011.8mb 84f 83f
7:10  -   -   -  9 11 mph 1011.9mb 84f 83f
7:00  -   -   -  9 11 mph 1011.8mb 84f 83f
6:50 2ft 6s  -  9 11 mph 1011.8mb 84f 83f
6:40  -   -   -  9 13 mph 1011.6mb 84f 83f
6:30  -   -   -  11 13 mph 1011.5mb 84f 83f
6:20  -   -   -  11
mph
1011.5mb 84f 83f
6:10  -   -   -  9 11 mph 1011.4mb 84f 83f
6:00  -   -   -  9 13 mph 1011.3mb 84f 83f
5:50 2ft 6s 4s 11 13 mph 1011.1mb 84f 83f
5:40  -   -   -  9 11 mph 1011mb 84f 83f
5:30  -   -   -  11 13 mph 1011mb 84f 83f
5:20  -   -   -  9 13 mph 1011mb 84f 83f
5:10  -   -   -  9 13 mph 1011.1mb 84f 83f
5:00  -   -   -  11 13 mph 1011mb 85f 83f
4:50 2ft 7s 4s 11 13 mph 1010.8mb 85f 83f
4:40  -   -   -  11 13 mph 1010.8mb 85f 83f
4:30  -   -   -  11 13 mph 1010.6mb 85f 83f
4:20  -   -   -  11 13 mph 1010.6mb 85f 83f
4:10  -   -   -  11 13 mph 1010.6mb 85f 83f
4:00  -   -   -  11
mph
1010.9mb 85f 83f
3:50 2ft 7s 4s 11 13 mph 1010.8mb 85f 83f
3:40  -   -   -  9 11 mph 1010.9mb 85f 83f
3:30  -   -   -  9 13 mph 1011mb 85f 83f
3:20  -   -   -  11 13 mph 1010.8mb 85f 83f
3:10  -   -   -  11 13 mph 1010.9mb 85f 83f
3:00  -   -   -  11 13 mph 1011mb 85f 83f
2:50 2ft 6s 4s 11 13 mph 1011mb 85f 83f
2:40  -   -   -  11 13 mph 1011.1mb 85f 83f
2:30  -   -   -  13 16 mph 1011mb 85f 83f
2:20  -   -   -  13 16 mph 1011mb 85f 83f
2:10  -   -   -  11 16 mph 1011.3mb 85f 83f
2:00  -   -   -  13 16 mph 1011.4mb 85f 83f
1:50 2.5ft 7s 4s 13 16 mph 1011.4mb 85f 83f
1:40  -   -   -  13 18 mph 1011.5mb - -
1:30  -   -   -  13 16 mph 1011.5mb 85f 83f
1:20  -   -   -  7 9 mph 1011.5mb 85f 82f
1:10  -   -   -  11 16 mph 1011.8mb 85f 81f
1:00  -   -   -  20 29 mph 1012mb 85f 81f
12:50 2ft 7s 4s 16 22 mph 1012mb 85f 83f
12:40  -   -   -  13 18 mph 1012mb 85f 83f
12:30  -   -   -  13 16 mph 1012.1mb 85f 83f
12:20  -   -   -  11 16 mph 1012.4mb 85f 83f
12:10  -   -   -  13 16 mph 1012.6mb 85f 83f
12:00  -   -   -  13 16 mph 1012.6mb 84f 83f
Seg 05/30 11:50 2ft 5s 4s 13 16 mph 1012.6mb 84f 83f
11:40  -   -   -  13 18 mph 1012.5mb 84f 83f
11:30  -   -   -  16 18 mph 1012.5mb 84f 83f
11:20  -   -   -  13 16 mph 1012.5mb 84f 83f
11:10  -   -   -  13 18 mph 1012.6mb 84f 83f
11:00  -   -   -  13 18 mph 1012.9mb 84f 83f
10:50 2ft 7s 4s 13 16 mph 1013mb 84f 83f
10:40  -   -   -  13 18 mph 1012.9mb 84f 83f
10:30  -   -   -  13 16 mph 1012.6mb 84f 83f
10:20  -   -   -  16 18 mph 1012.8mb 84f 84f
10:10  -   -   -  13 18 mph 1012.9mb 84f 84f
10:00  -   -   -  13 16 mph 1012.9mb 84f 83f
9:50 2ft 6s 4s 13 16 mph 1013.1mb 84f 83f
9:40  -   -   -  13 16 mph 1013mb 84f 83f
9:30  -   -   -  13 16 mph 1012.9mb 84f 83f
9:20  -   -   -  13 16 mph 1012.9mb 84f 83f
9:10  -   -   -  13 16 mph 1012.9mb 84f 83f
9:00  -   -   -  13 18 mph 1012.6mb 84f 83f
8:50 2ft 6s 4s 13 18 mph 1012.6mb 85f 84f
8:40  -   -   -  13 18 mph 1012.5mb 85f 84f
8:30  -   -   -  13 16 mph 1012.5mb 85f 84f
8:20  -   -   -  13 18 mph 1012.4mb 85f 84f
8:10  -   -   -  16 18 mph 1012.1mb 85f 84f
8:00  -   -   -  16
mph
1012.1mb 85f 84f
7:50 1.6ft 4s 4s 13 16 mph 1012.3mb 85f 84f
7:40  -   -   -  13 18 mph 1012.3mb 85f 84f
7:30  -   -   -  13 16 mph 1012.1mb 85f 84f
7:20  -   -   -  13 16 mph 1012mb 85f 84f
7:10  -   -   -  13 16 mph 1011.8mb 85f 84f
7:00  -   -   -  13 16 mph 1011.9mb 85f 84f
6:50 2ft 6s 4s 11 13 mph 1011.9mb 85f 84f
6:40  -   -   -  11 16 mph 1011.9mb 85f 84f
6:30  -   -   -  11 16 mph 1011.8mb - -
6:20  -   -   -  11 16 mph 1011.9mb 85f 84f
6:10  -   -   -  11 13 mph 1011.6mb 85f 84f
6:00  -   -   -  11 13 mph 1011.5mb 85f 84f
5:50 2ft 4s 4s 11 13 mph 1011.5mb 85f 84f
5:40  -   -   -  13 16 mph 1011.5mb 85f 84f
5:30  -   -   -  11 13 mph 1011.5mb 85f 84f
5:20  -   -   -  11 13 mph 1011.5mb 85f 84f
5:10  -   -   -  11 13 mph 1011.5mb 85f 84f
5:00  -   -   -  11 13 mph 1011.4mb 85f 84f
4:50 2ft 5s 4s 11 16 mph 1011.4mb 85f 84f
4:40 2ft  -  4s 11 13 mph 1011.5mb 85f 84f
4:30  -   -   -  11 13 mph 1011.5mb 85f 84f
4:20  -   -   -  11 13 mph 1011.5mb 85f 84f
4:10  -   -   -  9 11 mph 1011.5mb - 83f
4:00  -   -   -  11 13 mph 1011.8mb 85f 83f
3:50 2ft 7s 4s 13 18 mph 1011.8mb 85f 83f
3:40  -   -   -  16 18 mph 1011.8mb 85f 84f
3:30  -   -   -  11 16 mph 1011.8mb 85f 84f
3:20  -   -   -  11 13 mph 1011.9mb 85f 84f
3:10  -   -   -  11 13 mph 1012.1mb 85f 84f
3:00  -   -   -  11 13 mph 1012.4mb 85f 84f
2:50 2ft 4s 4s 13 16 mph 1012.5mb 85f 84f
2:40  -   -   -  13
mph
1012.6mb 85f 84f
2:30  -   -   -  11 16 mph 1012.9mb 85f 84f
2:20  -   -   -  11 13 mph 1012.9mb 85f 84f
2:10  -   -   -  11 16 mph 1012.9mb 85f 84f
2:00  -   -   -  11 13 mph 1013mb 85f 84f
1:50 2ft 5s 4s 13 16 mph 1013mb 85f 84f
1:40  -   -   -  11 13 mph 1013mb 85f 84f
1:30  -   -   -  11 16 mph 1013.1mb 85f 84f
1:20  -   -   -  13 16 mph 1013.1mb 85f 84f
1:10  -   -   -  13 16 mph 1013.4mb 85f 84f
1:00  -   -   -  13 16 mph 1013.5mb 85f 84f
12:50 2ft 7s 4s 11 13 mph 1013.5mb 85f 84f
12:40  -   -   -  11 13 mph 1013.5mb 85f 84f
12:30  -   -   -  11 13 mph 1013.6mb 85f 84f
12:20  -   -   -  13 16 mph 1013.6mb 85f 84f
12:10  -   -   -  13
mph
1013.6mb 85f 84f
12:00  -   -   -  13 16 mph 1013.8mb 85f 84f
11:50 2.5ft 4s 4s 13 16 mph 1013.8mb 85f 84f
11:40  -   -   -  13 16 mph 1013.8mb 85f 84f
11:30  -   -   -  13 16 mph 1013.9mb 85f 84f
11:20  -   -   -  13 16 mph 1014mb 85f 84f
11:10  -   -   -  13 16 mph 1013.9mb 85f 84f
11:00  -   -   -  13 16 mph 1013.9mb 85f 84f
10:50 2.5ft 6s 4s 13 16 mph 1013.9mb 85f 84f
10:40  -   -   -  13 16 mph 1013.9mb 85f 84f
10:30  -   -   -  13 18 mph 1014mb 85f 84f
10:20  -   -   -  13 16 mph 1014mb 85f 84f
10:10  -   -   -  13 16 mph 1014mb 85f 84f
10:00  -   -   -  13 16 mph 1014mb 85f 84f
9:50 2.5ft 7s 4s 13 16 mph 1014mb 85f 84f
9:40  -   -   -  13 16 mph 1014mb 85f 84f
9:30  -   -   -  13 16 mph 1014mb 85f 84f
9:20  -   -   -  13 18 mph 1013.8mb 84f 84f
9:10  -   -   -  13 18 mph 1013.8mb 84f 83f
9:00  -   -   -  16 18 mph 1013.8mb 84f 83f
8:50 2ft 5s 4s 13 16 mph 1013.6mb 84f 83f
8:40  -   -   -  13 16 mph 1013.8mb 84f 83f
8:30  -   -   -  9 16 mph 1013.6mb 84f 83f
8:20  -   -   -  9 11 mph 1013.5mb 84f 83f
8:10  -   -   -  11 13 mph 1013.5mb 84f 83f
8:00  -   -   -  13 16 mph 1013.6mb 84f 83f
7:50 2ft 4s 4s 11 16 mph 1013.6mb 84f 84f
7:40  -   -   -  11 13 mph 1013.5mb 84f 84f
7:30  -   -   -  13 16 mph 1013.4mb 84f 83f
7:20  -   -   -  11 13 mph 1013.4mb 84f 83f
7:10  -   -   -  9 13 mph 1013.4mb 84f 83f
7:00  -   -   -  11 13 mph 1013.4mb 84f 83f
6:50 2ft 5s 4s 13 16 mph 1013.1mb 84f 83f
6:40  -   -   -  13 18 mph 1013.3mb 84f 83f
6:30  -   -   -  11 13 mph 1013mb 84f 83f
6:20  -   -   -  9 11 mph 1013mb 84f 83f
6:10  -   -   -  9 11 mph 1012.9mb 84f 83f
6:00  -   -   -  9 11 mph 1013mb 84f 83f
5:50 2ft 6s 4s 9 13 mph 1013.1mb 84f 83f
5:40  -   -   -  9 11 mph 1013.1mb 84f 83f
5:30  -   -   -  9 11 mph 1012.9mb 84f 83f
5:20  -   -   -  11 13 mph 1012.6mb 84f 83f
5:10  -   -   -  11 16 mph 1012.6mb 84f 83f
5:00  -   -   -  11 13 mph 1012.6mb 84f 83f
4:50 2ft 6s 4s 11 13 mph 1012.6mb 84f 83f
4:40  -   -   -  11 13 mph 1012.8mb - 83f
4:30  -   -   -  11 16 mph 1012.6mb 84f 83f
4:20  -   -   -  11 13 mph 1012.5mb 84f 83f
4:10  -   -   -  11 13 mph 1012.5mb 84f 83f
4:00  -   -   -  11 13 mph 1012.5mb 84f 83f
3:50 2.5ft 4s 4s 13 16 mph 1012.5mb 84f 83f
3:40  -   -   -  13 16 mph 1012.5mb 84f 83f
3:30  -   -   -  13 16 mph 1012.6mb 84f 83f
3:20  -   -   -  13 18 mph 1012.6mb 84f 83f
3:10  -   -   -  13 18 mph 1012.9mb 84f 83f
3:00  -   -   -  16 18 mph 1013mb 84f 83f
2:50 2.5ft 4s 4s 16 18 mph 1013mb 84f 83f
2:40  -   -   -  13 18 mph 1013mb 84f 83f
2:30  -   -   -  11 16 mph 1013.1mb 84f 83f
2:20  -   -   -  11 13 mph 1013.4mb 84f 83f
2:10  -   -   -  11 13 mph 1013.5mb 84f 83f
2:00  -   -   -  11 13 mph 1013.5mb 84f 83f
1:50 2.5ft 6s 4s 13 16 mph 1013.4mb 84f 83f
1:40  -   -   -  13 16 mph 1013.6mb 85f 83f
1:30  -   -   -  13 16 mph 1013.9mb 85f 83f
1:20  -   -   -  13 18 mph 1013.9mb 85f 83f
1:10  -   -   -  13 18 mph 1013.9mb 85f 83f
1:00  -   -   -  13 16 mph 1014mb 85f 83f
12:50 2.5ft 5s 4s 16 18 mph 1014mb 85f 83f
12:40  -   -   -  16 18 mph 1014mb 85f 83f
12:30  -   -   -  16 18 mph 1014.3mb 85f 83f
12:20  -   -   -  16 18 mph 1014.3mb 85f 83f
12:10  -   -   -  16 18 mph 1014.3mb 85f 83f
12:00  -   -   -  16 20 mph 1014.4mb 85f 84f
Dom 05/29 11:50 2.5ft 6s 4s 16 20 mph 1014.5mb 85f 84f
11:40  -   -   -  16 20 mph 1014.8mb 85f 84f
11:30  -   -   -  16 20 mph 1014.8mb 85f 84f
11:20  -   -   -  18 20 mph 1014.8mb 85f 84f
11:10  -   -   -  16 20 mph 1014.9mb 85f 84f
11:00  -   -   -  16 18 mph 1015mb 85f 84f
10:50 2.5ft 7s 4s 13 16 mph 1015.1mb 85f 84f
10:40  -   -   -  13 16 mph 1014.9mb 85f 84f
10:30  -   -   -  13 18 mph 1015mb 85f 84f
10:20  -   -   -  13 18 mph 1015mb - 84f
10:10  -   -   -  16 18 mph 1014.9mb 85f 84f
10:00  -   -   -  13 16 mph 1014.9mb 85f 84f
9:50 2.5ft 6s 4s 13 16 mph 1014.8mb 85f 84f
9:40  -   -   -  16 18 mph 1014.9mb 85f 84f
9:30  -   -   -  16 18 mph 1014.9mb 85f 84f
9:20  -   -   -  16 18 mph 1014.8mb 85f 84f
9:10  -   -   -  16 18 mph 1014.5mb 85f 83f
9:00  -   -   -  13 16 mph 1014.5mb 85f 83f
8:50 2.5ft 6s 4s 13 16 mph 1014.5mb 85f 83f
8:40  -   -   -  13 16 mph 1014.4mb 85f 83f
8:30  -   -   -  11 13 mph 1014.1mb 85f 83f
8:20  -   -   -  11
mph
1014mb 85f 83f
8:10  -   -   -  11 13 mph 1014mb 85f 83f
8:00  -   -   -  11 13 mph 1013.9mb 85f 84f
7:50 2.5ft 6s 4s 11 13 mph 1013.9mb 85f 84f
7:40  -   -   -  13 16 mph 1014mb 85f 84f
7:30  -   -   -  13 16 mph 1014mb 85f 84f
7:20  -   -   -  11 16 mph 1014mb 85f 84f
7:10  -   -   -  13
mph
1014mb 85f 84f
7:00  -   -   -  13 16 mph 1014mb 85f 84f
6:50 2.5ft 6s 4s 13 18 mph 1014mb 85f 84f
6:40  -   -   -  13 18 mph 1013.9mb 85f 84f
6:30  -   -   -  13 16 mph 1013.9mb 85f 84f
6:20  -   -   -  13 16 mph 1013.6mb 85f 84f
6:10  -   -   -  13 16 mph 1013.6mb 85f 84f
6:00  -   -   -  13 16 mph 1013.5mb 85f 84f
5:50 2.5ft 6s 4s 13 18 mph 1013.5mb 85f 84f
5:40  -   -   -  13 16 mph 1013.5mb 85f 84f
5:30  -   -   -  13 16 mph 1014.3mb - 84f
5:20  -   -   -  13 16 mph 1013.6mb 85f 84f
5:10  -   -   -  13 16 mph 1013.8mb 85f 84f
5:00  -   -   -  13 16 mph 1013.9mb 85f 84f
4:50 2.5ft 6s 4s 13 16 mph 1014mb 85f 84f
4:40  -   -   -  13 16 mph 1014mb 85f 84f
4:30  -   -   -  11 16 mph 1014mb 85f 84f
4:20  -   -   -  13 16 mph 1014mb 85f 84f
4:10  -   -   -  13 16 mph 1014mb 85f 84f
4:00  -   -   -  13 16 mph 1014mb 85f 84f
3:50 2.5ft 6s 5s 13 16 mph 1014mb 85f 84f
3:40  -   -   -  13 16 mph 1014mb 85f 84f
3:30  -   -   -  11 16 mph 1014mb 85f 84f
3:20  -   -   -  13 16 mph 1014mb 85f 84f
3:10  -   -   -  11 16 mph 1014.1mb 85f 84f
3:00  -   -   -  11 13 mph 1014.3mb 85f 84f
2:50 2.5ft 6s 5s 11 13 mph 1014.5mb 85f 84f
2:40  -   -   -  11 13 mph 1014.8mb 85f 84f
2:30  -   -   -  11 13 mph 1014.8mb 85f 84f
2:20  -   -   -  11 13 mph 1014.9mb 85f 84f
2:10  -   -   -  11 13 mph 1015mb 85f 84f
2:00  -   -   -  11 13 mph 1015mb 85f 84f
1:50 2.5ft  -  4s 11 13 mph 1015mb - 84f
1:40 2.5ft 6s  -   -  mph - 85f -
1:30  -   -   -  11 13 mph 1015.1mb 85f 84f
1:20  -   -   -  11 13 mph 1015.3mb 85f 84f
1:10  -   -   -  11 13 mph 1015.4mb 85f 84f
1:00  -   -   -  11 13 mph 1015.4mb 85f 84f
12:50 2.5ft 7s 4s 11 13 mph 1015.4mb 85f 84f
12:40  -   -   -  11 13 mph 1015.4mb 85f 84f
12:30  -   -   -  11 13 mph 1015.5mb 85f 84f
12:20  -   -   -  11 13 mph 1015.4mb 85f 84f
12:10  -   -   -  11 13 mph 1015.5mb 85f 84f
12:00  -   -   -  11 13 mph 1015.5mb 85f 84f
11:50 2.5ft 6s 4s 11 13 mph 1015.4mb 85f 84f
11:40  -   -   -  11 13 mph 1015.5mb 85f 84f
11:30  -   -   -  11 13 mph 1015.6mb 85f 84f
11:20  -   -   -  13 16 mph 1015.4mb 84f 84f
11:10  -   -   -  13 16 mph 1015.4mb 84f 84f
11:00  -   -   -  13 16 mph 1015.4mb 84f 84f
10:50 2.5ft 5s 4s 11 16 mph 1015.5mb 84f 84f
10:40  -   -   -  11 13 mph 1015.5mb 84f 84f
10:30  -   -   -  11 13 mph 1015.6mb 84f 83f
10:20  -   -   -  11 13 mph 1015.5mb 84f 84f
10:10  -   -   -  11 16 mph 1015.5mb 84f 84f
10:00  -   -   -  13 16 mph 1015.4mb 84f 84f
9:50 2.5ft 5s 4s 13 16 mph 1015.3mb 84f 84f
9:40  -   -   -  11 13 mph 1015.4mb 84f 84f
9:30  -   -   -  13 16 mph 1015.4mb 84f 84f
9:20  -   -   -  11 13 mph 1015.4mb 84f 84f
9:10  -   -   -  11 13 mph 1015.3mb 84f 84f
9:00  -   -   -  13 16 mph 1015mb 84f 83f
8:50 2.5ft 5s 4s 11 16 mph 1015mb 84f 84f
8:40  -   -   -  11 13 mph 1015.3mb 84f 84f
8:30  -   -   -  13 16 mph 1015.1mb 84f 84f
8:20  -   -   -  11 16 mph 1015.3mb 84f 84f
8:10  -   -   -  11 16 mph 1015.1mb 84f 84f
8:00  -   -   -  13 16 mph 1015mb 84f 83f
7:50 2.5ft 6s 4s 13 16 mph 1015mb 84f 83f
7:40  -   -   -  13 18 mph 1014.8mb 84f 83f
7:30  -   -   -  13 18 mph 1014.8mb 84f 84f
7:20  -   -   -  13 16 mph 1014.8mb 84f 84f
7:10  -   -   -  13 16 mph 1014.8mb 84f 84f
7:00  -   -   -  13 18 mph 1014.6mb 84f 83f
6:50 2.5ft 5s 4s 13 18 mph 1014.6mb 84f 83f
6:40  -   -   -  13 16 mph 1014.5mb 84f 83f
6:30  -   -   -  13 16 mph 1014.5mb 84f 83f
6:20  -   -   -  13 16 mph 1014.4mb 84f 83f
6:10  -   -   -  13 16 mph 1014.3mb 84f 83f
6:00  -   -   -  13 16 mph 1014.3mb 84f 83f
5:50 3ft 5s 4s 13 16 mph 1014.3mb 84f 83f
5:40  -   -   -  13 16 mph 1014.3mb 84f 83f
5:30  -   -   -  13 16 mph 1014mb 84f 83f
5:20  -   -   -  13 18 mph 1014mb 84f 83f
5:10  -   -   -  13 16 mph 1014mb 84f 83f
5:00  -   -   -  13 16 mph 1014mb 84f 83f
4:50 2.5ft 7s 4s 13 18 mph 1013.9mb 84f 83f
4:40  -   -   -  13 16 mph 1013.9mb 84f 83f
4:30  -   -   -  13 16 mph 1013.9mb 84f 83f
4:20  -   -   -  13 16 mph 1013.8mb 84f 83f
4:10  -   -   -  13 16 mph 1013.8mb 84f 83f
4:00  -   -   -  13 16 mph 1013.5mb 84f 83f
3:50 2.5ft 5s 4s 13 16 mph 1013.5mb 84f 83f
3:40  -   -   -  13 16 mph 1013.5mb 84f 83f
3:30  -   -   -  13 18 mph 1013.3mb 84f 83f
3:20  -   -   -  13 18 mph 1013.4mb 84f 83f
3:10  -   -   -  13 16 mph 1013.4mb 84f 83f
3:00  -   -   -  13 18 mph 1013.5mb 84f 83f
2:50 2.5ft 5s 4s 13 16 mph 1013.5mb 84f 83f
2:40 2.5ft  -  4s 13 16 mph 1013.8mb 84f 83f
2:30  -   -   -  13 16 mph 1013.8mb 84f 83f
2:20  -   -   -  13 18 mph 1013.9mb 84f 83f
2:10  -   -   -  13 16 mph 1014mb 84f 83f
2:00  -   -   -  13 16 mph 1014mb 84f 83f
1:50 2.5ft 5s 4s 16 18 mph 1014mb 84f 83f
1:40  -   -   -  13 18 mph 1014.3mb 84f 83f
1:30  -   -   -  13 18 mph 1014.4mb 84f 83f
1:20  -   -   -  13 16 mph 1014.5mb 84f 83f
1:10  -   -   -  13 18 mph 1014.6mb 84f 83f
1:00  -   -   -  13 18 mph 1014.8mb - 83f
12:50 3ft 5s 4s 16 18 mph 1014.6mb 84f 83f
12:40  -   -   -  16 20 mph 1014.5mb 84f 83f
12:30  -   -   -  16 20 mph 1014.5mb 84f 83f
12:20  -   -   -  16 20 mph 1014.6mb 84f 83f
12:10  -   -   -  18 20 mph 1014.5mb 85f 83f
12:00  -   -   -  16 22 mph 1014.8mb 84f 83f
Sáb 05/28 11:50 3ft 4s 4s 16 18 mph 1014.8mb 84f 84f
11:40  -   -   -  16 20 mph 1014.8mb 84f 84f
11:30  -   -   -  16 18 mph 1015mb 84f 84f
11:20  -   -   -  16 20 mph 1015mb 84f 84f
11:10  -   -   -  18 20 mph 1015.1mb 84f 84f
11:00  -   -   -  16 20 mph 1015.1mb 84f 84f
10:50 3ft 7s 4s 16 20 mph 1015mb 84f 84f
10:40  -   -   -  16 20 mph 1015mb 84f 84f
10:30  -   -   -  16 18 mph 1014.9mb 84f 84f
10:20  -   -   -  16 20 mph 1014.9mb 84f 84f
10:10  -   -   -  18 20 mph 1014.6mb 84f 84f
10:00  -   -   -  16 20 mph 1014.5mb 84f 84f
9:50 2.5ft 6s 4s 16 20 mph 1014.8mb 84f 84f
9:40  -   -   -  16 18 mph 1014.6mb 84f 84f
9:30  -   -   -  16 18 mph 1014.5mb 84f 84f
9:20  -   -   -  16 18 mph 1014.3mb 84f 84f
9:10  -   -   -  16 18 mph 1014.3mb 84f 84f
9:00  -   -   -  13 18 mph 1014.1mb 84f 84f
8:50 2.5ft 5s 4s 16 18 mph 1014mb 84f 84f
8:40  -   -   -  16 18 mph 1014mb 84f 84f
8:30  -   -   -  16 18 mph 1013.6mb 84f 84f
8:20  -   -   -  13 16 mph 1013.8mb 84f 84f
8:10  -   -   -  13 16 mph 1013.8mb 84f 84f
8:00  -   -   -  13 16 mph 1013.8mb 84f 84f
7:50 2.5ft 5s 4s 13 16 mph 1013.8mb 84f 84f
7:40  -   -   -  13 16 mph 1013.8mb 84f 84f
7:30  -   -   -  13 16 mph 1013.8mb 84f 84f
7:20  -   -   -  13 18 mph 1013.6mb 84f 84f
7:10  -   -   -  13 16 mph 1013.4mb 84f 84f
7:00  -   -   -  13 16 mph 1013.4mb 84f 84f
6:50 2.5ft 5s 4s 13 16 mph 1013.4mb 84f 84f
6:40  -   -   -  13 16 mph 1013.3mb 84f 84f
6:30  -   -   -  13 16 mph 1013.1mb 84f 84f
6:20  -   -   -  13 16 mph 1013mb 85f 84f
6:10  -   -   -  13 16 mph 1013mb 85f 84f
6:00  -   -   -  13 16 mph 1012.9mb 85f 84f
5:50 2.5ft 5s 4s 13 18 mph 1013mb 85f 84f
5:40  -   -   -  13 16 mph 1012.9mb 85f 84f
5:30  -   -   -  13 16 mph 1012.9mb 85f 84f
5:20  -   -   -  13 16 mph 1012.8mb 85f 84f
5:10  -   -   -  13 16 mph 1012.6mb 85f 84f
5:00  -   -   -  13 16 mph 1012.6mb 85f 84f
4:50 2.5ft 5s 4s 13 16 mph 1012.6mb 85f 84f
4:40  -   -   -  13 16 mph 1012.5mb 85f 84f
4:30  -   -   -  13 16 mph 1012.6mb 85f 84f
4:20  -   -   -  13 16 mph 1012.6mb 85f 84f
4:10  -   -   -  11 13 mph 1012.8mb 85f 84f
4:00  -   -   -  13 16 mph 1012.9mb 85f 84f
3:50 3ft 5s 4s 13 18 mph 1012.9mb 85f 84f
3:40 3ft  -  4s 13 18 mph 1012.9mb 85f 84f
3:30  -   -   -  13 18 mph 1013mb 85f 84f
3:20  -   -   -  16 18 mph 1013mb 85f 84f
3:10  -   -   -  16 18 mph 1013mb 85f 84f
3:00  -   -   -  13 16 mph 1012.9mb 85f 84f
2:50 2.5ft 5s 4s 13 16 mph 1012.9mb 85f 84f
2:40  -   -   -  13 16 mph 1013.1mb 85f 84f
2:30  -   -   -  13 18 mph 1013.1mb 85f 84f
2:20  -   -   -  16 18 mph 1013.1mb 85f 84f
2:10  -   -   -  16 18 mph 1013.3mb 85f 84f
2:00  -   -   -  16 18 mph 1013.4mb 85f 84f
1:50 2.5ft 5s 4s 16 20 mph 1013.5mb - -
1:40  -   -   -  16 18 mph 1013.5mb 85f 84f
1:30  -   -   -  16 18 mph 1013.5mb 85f 84f
1:20  -   -   -  16 18 mph 1013.5mb 85f 84f
1:10  -   -   -  16 18 mph 1013.5mb 85f 84f
1:00  -   -   -  16 18 mph 1013.5mb 85f 84f
12:50 2.5ft 5s 4s 13 16 mph 1013.6mb 85f 84f
12:40  -   -   -  13 18 mph 1013.5mb 85f 84f
12:30  -   -   -  16 18 mph 1013.5mb 85f 84f
12:20  -   -   -  16 18 mph 1013.6mb 85f 84f
12:10  -   -   -  16 18 mph 1013.6mb 85f 84f
12:00  -   -   -  13 18 mph 1013.9mb 85f 84f
11:50 2.5ft 5s 4s 13 16 mph 1014.1mb 85f 84f
11:40  -   -   -  13 16 mph 1014.1mb 85f 84f
11:30  -   -   -  13 16 mph 1014.1mb 84f 84f
11:20  -   -   -  13 18 mph 1014mb 84f 84f
11:10  -   -   -  13 16 mph 1014.1mb 84f 84f
11:00  -   -   -  16 18 mph 1014mb 84f 84f
10:50 2.5ft 5s 4s 13 18 mph 1014mb 84f 84f
10:40  -   -   -  16 18 mph 1014mb 84f 84f
10:30  -   -   -  16 18 mph 1014mb 84f 84f
10:20  -   -   -  16 20 mph 1014mb 84f 84f
10:10  -   -   -  16 18 mph 1014mb 84f 84f
10:00  -   -   -  16 18 mph 1014.1mb 84f 84f
9:50 2.5ft 5s 4s 16 18 mph 1014mb 84f 84f
9:40 2.5ft  -  4s 16 18 mph 1013.6mb 84f 84f
9:30  -   -   -  16 18 mph 1013.5mb 84f 83f
9:20  -   -   -  16 18 mph 1013.5mb 84f 83f
9:10  -   -   -  16 18 mph 1013.4mb 84f 84f
9:00  -   -   -  16 18 mph 1013.5mb 84f 84f
8:50 3ft 5s 4s 16 20 mph 1013.5mb 84f 84f
8:40 3ft  -  4s 16 18 mph 1013.5mb 84f 84f
8:30  -   -   -  16 18 mph 1013.4mb 84f 84f
8:20  -   -   -  16 18 mph 1013.4mb 84f 83f
8:10  -   -   -  16 18 mph 1013.3mb 84f 83f
8:00  -   -   -  13 18 mph 1013.1mb 84f 83f
7:50 2.5ft 5s 4s 16 18 mph 1013.1mb 84f 84f
7:40  -   -   -  16 18 mph 1013mb 84f 83f
7:30  -   -   -  16 18 mph 1012.9mb 84f 83f
7:20  -   -   -  13 18 mph 1012.8mb 84f 83f
7:10  -   -   -  13 18 mph 1012.6mb 84f 83f
7:00  -   -   -  16 18 mph 1012.5mb 84f 83f
6:50 2.5ft 5s 4s 13 18 mph 1012.4mb 84f 83f
6:40  -   -   -  13 18 mph 1012.3mb - 83f
6:30  -   -   -  13 18 mph 1012mb 84f 83f
6:20  -   -   -  16 18 mph 1011.9mb 84f 83f
6:10  -   -   -  13 18 mph 1011.8mb 84f 83f
6:00  -   -   -  16 18 mph 1011.6mb 84f 83f
5:50 2.5ft 4s 4s 13 18 mph 1011.5mb 84f 83f
5:40  -   -   -  13 18 mph 1011.5mb 84f 83f
5:30  -   -   -  16 18 mph 1011.4mb 84f 83f
5:20  -   -   -  16 18 mph 1011.3mb 84f 83f
5:10  -   -   -  16 18 mph 1011.1mb 84f 83f
5:00  -   -   -  13 18 mph 1011.1mb 84f 83f
4:50 3ft 5s 4s 13 18 mph 1011.1mb 84f 83f
4:40  -   -   -  13 18 mph 1011.1mb 84f 83f
4:30  -   -   -  16 18 mph 1011.1mb 84f 83f
4:20  -   -   -  16 18 mph 1011.1mb 84f 83f
4:10  -   -   -  13 18 mph 1011mb 84f 83f
4:00  -   -   -  13 16 mph 1011.1mb 84f 83f
3:50 2.5ft 5s 4s 16 18 mph 1011mb 84f 83f
3:40  -   -   -  16 18 mph 1011mb 84f 83f
3:30  -   -   -  16 20 mph 1011mb 84f 83f
3:20  -   -   -  16 18 mph 1011mb 84f 83f
3:10  -   -   -  16 18 mph 1011mb 84f 83f
3:00  -   -   -  16 20 mph 1011mb 84f 83f
2:50 2.5ft 4s 4s 16 20 mph 1011.1mb 84f 83f
2:40 2.5ft  -  4s 16 20 mph 1011.1mb 84f 83f
2:30  -   -   -  16 20 mph 1011.3mb 84f 83f
2:20  -   -   -  16 20 mph 1011.4mb 84f 83f
2:10  -   -   -  16 18 mph 1011.5mb 84f 83f
2:00  -   -   -  13 18 mph 1011.6mb 84f 83f
1:50 2.5ft 5s 4s 11 13 mph 1011.5mb 84f 82f
1:40  -   -   -  16 20 mph 1011.6mb - -
1:30  -   -   -  11 13 mph 1011.9mb - 82f
1:20  -   -   -  13 16 mph 1011.8mb 84f 82f
1:10  -   -   -  13 18 mph 1011.9mb 84f 83f
1:00  -   -   -  13 18 mph 1011.9mb 84f 83f
12:50 2.5ft 4s 4s 13 16 mph 1011.9mb 84f 83f
12:40  -   -   -  13 16 mph 1011.9mb 84f 83f
12:30  -   -   -  13 16 mph 1011.9mb 84f 83f
12:20  -   -   -  13 18 mph 1012mb 84f 83f
12:10  -   -   -  13 18 mph 1012mb 84f 83f